Regional Weather Roundup
Issued by NWS Columbia, SC

Home | Current Version | Previous Version | Text Only | Print | Product List | Glossary On
Versions: 1 2 3 4 5 6 7 8 9 10 11 12 13 14 15 16 17 18 19 20 21 22 23 24 25 26 27 28 29 30 31 32 33 34 35 36 37 38 39 40 41 42 43 44 45 46 47 48 49 50
000
ASUS42 KCAE 100110
RWRCAE
REGIONAL WEATHER ROUNDUP
NATIONAL WEATHER SERVICE COLUMBIA SC
800 PM EST FRI DEC 09 2016

NOTE: "FAIR" INDICATES FEW OR NO CLOUDS BELOW 12,000 FEET WITH NO
SIGNIFICANT WEATHER AND/OR OBSTRUCTIONS TO VISIBILITY.

NOT ALL STATIONS ARE QUALITY CONTROLLED BY THE NATIONAL
WEATHER SERVICE. USE DATA WITH CAUTION...ESPECIALLY
DEWPOINT OBSERVATIONS.

SCZ001>056-GAZ040-063>065-077-100200-
...UPSTATE SOUTH CAROLINA...

CITY           SKY/WX    TMP DP  RH WIND       PRES   REMARKS
ANDERSON       CLEAR     35  17  47 E6        30.43R WCI  30
LIBERTY        CLEAR     33  16  51 E6        30.41R WCI  27
SPARTANBURG    CLEAR     32  12  43 CALM      30.43R
CLEMSON        CLEAR     38  18  44 E6        30.43R WCI  33
GREENVILLE     CLEAR     36  12  37 NE9       30.43R WCI  29
GREENWOOD      CLEAR     31  18  58 CALM      30.45R
GREER          CLEAR     32  13  45 CALM      30.42R
ROCK HILL      CLEAR     33  15  47 N3        30.44R
CHESTER        CLEAR     34  14  44 N3        30.45R
LAURENS          N/A     32  23  69 CALM      30.44R


...CENTRAL SOUTH CAROLINA...

CITY           SKY/WX    TMP DP  RH WIND       PRES   REMARKS
COLUMBIA APT   CLEAR     33  25  72 CALM      30.45R
COLUMBIA OWENS CLEAR     35  26  69 CALM      30.46R
MCENTIRE ANGB  CLEAR     31  27  82 CALM      30.45R
ORANGEBURG     CLEAR     34  26  72 CALM      30.45R
SUMTER SHAW    CLEAR     33  23  66 CALM      30.43R
NEWBERRY       CLEAR     32  23  69 CALM      30.47R
AIKEN          FAIR      32  27  80 CALM      30.48R
LANCASTER      CLEAR     32  16  51 CALM      30.45R
WINNSBORO      CLEAR     34  21  60 NE3       30.43S


...EASTERN AND COASTAL SOUTH CAROLINA...

CITY           SKY/WX    TMP DP  RH WIND       PRES   REMARKS
MYRTLE BEACH   CLEAR     36  25  64 CALM      30.47R
N MYRTLE BCH   CLEAR     32  28  85 CALM      30.45R
CONWAY         FAIR      30  28  93 CALM      30.46R
MARION         FAIR      32  27  80 CALM      30.46R
HARTSVILLE     FAIR      32  21  64 CALM      30.45R
FLORENCE       CLEAR     32  23  69 N3        30.46R
DARLINGTON     CLEAR     30  25  81 CALM      30.46
CHARLESTON APT CLEAR     40  26  57 NE5       30.45R
WALTERBORO     CLEAR     34  30  86 CALM      30.46R
BEAUFORT       CLEAR     39  27  62 NE7       30.45R WCI  34
HILTON HEAD    CLEAR     45  23  42 N7        30.45R


...EASTERN GEORGIA...

CITY           SKY/WX    TMP DP  RH WIND       PRES   REMARKS
AUGUSTA BUSH F CLEAR     33  25  72 W3        30.46R
AUGUSTA DANIEL CLEAR     42  18  37 NE3       30.45R
THOMSON        CLEAR     33  30  88 CALM      30.49R
WASHINGTON     FAIR      36  30  80 CALM      30.43S
CLAXTON        FAIR      35  34  94 CALM      30.45R
SYLVANIA       PTCLDY   N/A N/A N/A CALM      30.45R
STATESBORO     PTCLDY    34  33  95 CALM      30.45R
SAVANNAH       PTCLDY    38  29  70 CALM      30.45R


...SOUTHERN NORTH CAROLINA...

CITY           SKY/WX    TMP DP  RH WIND       PRES   REMARKS
CHARLOTTE      CLEAR     33  13  43 N5        30.44R WCI  29
MONROE         CLEAR     32  15  49 NE3       30.43R
WADESBORO      CLEAR     27  21  79 CALM      30.45R
ROCKINGHAM     CLEAR     35  18  51 CALM      30.44R
RUTHERFORDTON  CLEAR     32  10  40 N6        30.44R WCI  26
ASHEVILLE      CLEAR     26  12  55 N13       30.40S WCI  15

$$



USA.gov is the U.S. government's official web portal to all federal, state and local government web resources and services.